sat.trackr.live / text

‹ back to catalog

STARLINK-32505

NORAD 63085 · 2025-037J

PAYLOAD ACTIVE UNKNOWN

§ Identity

Operator
Country
US
Launch date
2025-02-23
Launch site
AFWTR
Launch vehicle
Mass (kg)
RCS (m²)

Purposes: comms

External: N2YO · Heavens-Above · Gunter

§ Orbital elements

Epoch: 2026-09-20T22:00:03.000096Z

Period
94.09 min
Inclination
70.0010°
Eccentricity
0.0003287
Mean motion
15.30410549 rev/d
Perigee alt
472.3 km
Apogee alt
476.8 km
Semi-major
6,852.7 km
B*
3.4024e-4
RAAN
220.0684°
Arg perigee
266.2320°
Mean anomaly
290.8506°
Rev number
576

§ Raw data

STARLINK-325051 63085U 25037J   26263.91670139  .00009918  00000+0  34024-3 0  99962 63085  70.0010 220.0684 0003287 266.2320 290.8506 15.30410549  5765

JSON: /api/v1/satellites/63085 · /tle

For live sub-satellite position, see the globe view (requires WebGL).

§ Visibility from observer

Set your observer location to see the next 7 days of passes ≥ 10°. The values pass through the URL so the page stays shareable.

No JS? Fill the form by hand. The geolocation button needs JavaScript.